Location: Pf�ffikon
(47.2015°N, 8.7809°E)
Time: 19:11:48
(UTC+00:00)

BREEZE-M DEB (TANK) - Pass Details

Date: 07 June 2020
Orbit: 273 x 20509 km, 49.2° (Epoch: 10 July)

Event Time Altitude Azimuth Distance (km) Brightness Sun altitude
Exits shadow 01:20:26 58° 244° (WSW) 337 1.4 -15.2°
Maximum altitude 01:20:45 85° 162° (SSE) 298 1.4 -15.2°
Drops below altitude 10° 01:23:26 10° 74° (ENE) 1,536 5.7 -15.0°
Sets 01:26:30 0° 74° (ENE) 3,185 7.4 -14.8°
